Погода в Надоре

Марокко     35°09′16″N   2°57′42″W
темп.,
°C
ветер,
м/с
пор.,
м/с
влажн.,
%
обл.,
%
осадки,
мм/ч
давл.,
гПа
погр.,
м
17 сентября, пт
пт1701:00+22вюв22750 0.0 1017199
04:00+22вюв22790 0.0 1016130
07:00+22юв22820 0.0 101690
10:00+24в23749 0.0 1016599
13:00+25всв43655 0.0 1015756
16:00+26всв43580 0.0 1014714
19:00+25св22610 0.0 1014367
22:00+24вюв11670 0.0 1015134
18 сентября, сб
сб1801:00+23вюв11700 0.0 101582
04:00+22юв12755 0.0 101430
07:00+22ююв11770 0.0 101418
10:00+25зсз11570 0.0 1015435
13:00+26ссз43560 0.0 1015763
16:00+26ссз44520 0.0 1014566
19:00+25зсз22560 0.0 1014277
22:00+25юз11550 0.0 101543
19 сентября, вс
вс1901:00+24зсз11580 0.0 101512
04:00+23зсз11610 0.0 101416
07:00+22ссз11630 0.0 101512
10:00+25ссз11510 0.0 1016363
13:00+27с324571 0.0 1015691
16:00+26с434686 0.0 1014546
19:00+24сз225075 0.0 1015276
22:00+24сз115097 0.0 1016111
20 сентября, пн
пн2001:00+23з11550 0.6 101621
04:00+22ююз01550 0.0 101513
07:00+22зсз11520 0.0 101615
10:00+25зсз23450 0.0 1017482
13:00+26сз55480 0.0 1016690
16:00+25сз44490 0.0 1014575
19:00+24зсз22510 0.0 1014272
22:00+24з11500 0.0 101428
21 сентября, вт
вт2101:00+23с11510 0.0 101412
04:00+22всв22560 0.0 101322
07:00+21всв12700 0.0 101367
10:00+23ссв21600 0.0 1014601
13:00+24с32550 0.0 1014978
16:00+24ссв44550 0.0 1013795
19:00+23с23570 0.0 1013429
22:00+22в23728 0.0 1015434